Flag for U.S.A. Weather past 2 weeks in Appleton, Wisconsin, U.S.A.

Now
66 °F

Partly sunny.


Feels Like: 66 °F
Forecast: 60 / 79 °F
Wind: 5 mph from North

Location: Appleton / Outagamie

Current Time: Aug 1, 2014 at 9:59:09 PM

Latest Report: Aug 1, 2014 at 8:45 PM


Visibility: 10 mi

Pressure: 30.09 "Hg

Humidity: 83%

Dew point: 61 °F

Location of AppletonLocation

Historic Weather in Appleton — Graph

°F

Appleton temperature yesterday

Maximum temperature yesterday: 79 °F (at 3:45 PM)
Minimum temperature yesterday: 55 °F (at 3:15 AM)
Average temperature yesterday: 63 °F

Past Weeks' High & Low Weather Summary

 TemperatureHumidityPressure
High88 °F (Jul 22, 5:45 PM)100% (Jul 29, 10:45 PM)30.22 "Hg (Jul 29, 10:45 PM)
Low50 °F (Jul 28, 5:15 AM)38% (Jul 28, 4:45 PM)29.71 "Hg (Jul 27, 4:35 AM)
Average65 °F73%30.01 "Hg
* Reported Jul 17 8:45 PM — Aug 1 8:45 PM, Appleton, Weather by CustomWeather, © 2014

Note: Actual official high and low records may vary slightly from our data, if they occured in-between our weather recording intervals... More about our weather records

Advertising

Appleton weather history for previous 24 hours

 ConditionsComfort  
Time TempWeatherWind HumidityBarometerVisibility
8:45 PM
Aug 1
66 °FPartly sunny.5 mph83%30.09 "Hg10 mi
7:45 PM70 °FPartly sunny.5 mph73%30.08 "Hg10 mi
5:45 PM70 °FMore clouds than sun.12 mph69%30.07 "Hg8 mi
4:45 PM70 °FMostly cloudy.8 mph60%30.06 "Hg7 mi
3:50 PM70 °FBroken clouds.9 mph64%30.06 "Hg7 mi
2:45 PM77 °FThunderstorms. Broken clouds.6 mph51%30.06 "Hg7 mi
1:45 PM79 °FPartly sunny.3 mph54%30.06 "Hg7 mi
12:45 PM79 °FScattered clouds.3 mph54%30.07 "Hg10 mi
11:45 AM75 °FSunny.5 mph65%30.07 "Hg10 mi
10:45 AM73 °FSunny.No wind65%N/A7 mi
9:45 AM70 °FSunny.5 mph78%30.07 "Hg10 mi
8:45 AM66 °FSunny.3 mph88%30.07 "Hg10 mi
7:45 AM64 °FPartly sunny.No wind88%30.06 "Hg10 mi
6:45 AM61 °FPartly sunny.No wind94%30.05 "Hg7 mi
5:45 AM61 °FPassing clouds.No wind88%30.03 "Hg10 mi
5:15 AM59 °FClear.6 mph94%30.02 "Hg10 mi
4:55 AM61 °FClear.8 mph88%30.02 "Hg10 mi
4:35 AM61 °FClear.9 mph88%30.02 "Hg10 mi
4:15 AM61 °FClear.9 mph88%30.02 "Hg10 mi
3:55 AM61 °FClear.9 mph88%30.02 "Hg10 mi
3:15 AM61 °FClear.7 mph88%30.01 "Hg10 mi
2:55 AM61 °FClear.9 mph88%30.01 "Hg10 mi
2:35 AM61 °FClear.7 mph88%30.01 "Hg10 mi
2:15 AM61 °FClear.7 mph88%30.01 "Hg10 mi
1:55 AM63 °FClear.8 mph88%30.01 "Hg10 mi
1:35 AM61 °FClear.8 mph94%30.01 "Hg10 mi
1:15 AM61 °FClear.7 mph94%30.01 "Hg10 mi
12:55 AM63 °FPassing clouds.7 mph83%30.02 "Hg10 mi
12:15 AM63 °FPassing clouds.7 mph77%30.02 "Hg10 mi
11:55 PM
Jul 31
63 °FClear.7 mph83%30.01 "Hg10 mi
11:15 PM64 °FPassing clouds.7 mph78%30.00 "Hg10 mi
10:45 PM66 °FPassing clouds.7 mph73%30.00 "Hg10 mi
9:45 PM64 °FPassing clouds.7 mph88%30.00 "Hg10 mi
Weather by CustomWeather, © 2014

See weather overviewHow to use our weather pages